Location: York
(31.8935°S, 116.7682°E)
Time: 15:19:44
(UTC+08:00)

Vanguard 1 - Visible Passes

Search period start: 25 September 2022 00:00
Search period end: 05 October 2022 00:00
Orbit: 649 x 3832 km, 34.2° (Epoch: 22 September)

Date Brightness Start Highest point End Pass type
(mag) Time Alt. Az. Time Alt. Az. Time Alt. Az.
25 Sep 12.1 02:31:59 43° NE 02:32:30 43° NE 02:48:01 10° ESE visible
25 Sep 12.3 04:44:40 20° WNW 04:55:12 87° NNE 05:17:31 10° ESE visible
26 Sep 11.7 02:51:31 53° NNE 02:52:51 55° NE 03:09:50 10° ESE visible
26 Sep 12.4 05:04:12 14° WNW 05:16:28 87° SSW 05:39:15 10° E visible
27 Sep 13.2 00:58:20 14° E 00:58:20 14° E 01:01:13 10° E visible
27 Sep 11.5 03:11:01 57° NNW 03:13:25 67° NNE 03:31:31 10° ESE visible
27 Sep 12.5 05:24:03 10° W 05:37:53 84° S 06:01:02 10° E visible
28 Sep 12.8 01:17:48 22° E 01:17:48 22° E 01:23:51 10° E visible
28 Sep 11.5 03:30:29 52° NW 03:34:13 78° NNE 03:53:10 10° ESE visible
29 Sep 12.4 01:37:15 32° ENE 01:37:15 32° ENE 01:45:52 10° ESE visible
29 Sep 11.6 03:49:55 42° WNW 03:55:12 88° NNE 04:14:51 10° ESE visible
30 Sep 12.0 01:56:40 44° ENE 01:56:40 44° ENE 02:07:35 10° ESE visible
30 Sep 11.9 04:09:21 31° W 04:16:19 86° S 04:36:36 10° E visible
01 Oct 11.5 02:16:05 59° ENE 02:16:05 59° ENE 02:29:11 10° ESE visible
01 Oct 12.1 04:28:46 22° W 04:37:35 83° S 04:58:25 10° E visible
02 Oct 11.2 02:35:29 77° NE 02:35:29 77° NE 02:50:45 10° ESE visible
02 Oct 12.2 04:48:09 15° W 04:58:53 82° S 05:20:15 10° E visible
03 Oct 13.0 00:42:12 16° E 00:42:12 16° E 00:44:29 10° E visible
03 Oct 11.0 02:54:52 77° WNW 02:55:57 88° NNE 03:12:21 10° ESE visible
03 Oct 12.3 05:07:55 10° W 05:20:13 83° S 05:42:05 10° E visible
04 Oct 12.7 01:01:35 23° E 01:01:35 23° E 01:06:06 10° ESE visible
04 Oct 11.2 03:14:16 58° W 03:16:57 85° S 03:34:02 10° E visible
